Regional Weather Roundup
Issued by NWS State College, PA

Home | Current Version | Previous Version | Text Only | Print | Product List | Glossary Off
Versions: 1 2 3 4 5 6 7 8 9 10 11 12 13 14 15 16 17 18 19 20 21 22 23 24 25 26 27 28 29 30 31 32 33 34 35 36 37 38 39 40 41 42 43 44 45 46 47 48 49 50

000
ASUS41 KCTP 211510
RWRCTP

REGIONAL WEATHER ROUNDUP
NATIONAL WEATHER SERVICE STATE COLLEGE PA
1000 AM EST SAT JAN 21 2017

Note: "fair" indicates few or no clouds below 12,000 feet with no
significant weather and/or obstructions to visibility.

* = STATION THAT DOES NOT REPORT PRECIPITATION /E.G. RAIN...SNOW...ETC/
    THUNDER OR FOG.

PAZ002>004-007>009-013>016-020>023-029>032-211600-
WESTERN PENNSYLVANIA

CITY           SKY/WX    TMP DP  RH WIND       PRES   REMARKS
ERIE           PTSUNNY   54  48  80 S13       29.74F
MEADVILLE      SUNNY     50  46  86 VRB6      29.76S
FRANKLIN*        N/A     46  45  93 S6        29.80S
NEW CASTLE     PTSUNNY   48  48 100 VRB3      29.79S FOG
BEAVER COUNTY  SUNNY     48  48 100 S7        29.78S
BUTLER*        SUNNY     48  48 100 SE7       29.82S
PITTSBURGH INT MOSUNNY   50  49  96 SE6       29.78S
PITTSBURGH     SUNNY     52  47  83 SE9       29.79S
INDIANA*       MOSUNNY   52  52 100 CALM      29.84S
LATROBE        SUNNY     46  46 100 CALM      29.82S
WASHINGTON CO* NOT AVBL
$$

PAZ004>006-010>012-017>019-024>028-033>037-041-042-045-046-049>053-211600-
CENTRAL PENNSYLVANIA

CITY           SKY/WX    TMP DP  RH WIND       PRES   REMARKS
BRADFORD       FOG       47  47 100 VRB5      29.81F VSB 1
DUBOIS         FOG       47  45  93 SE5       29.81S VSB 1/4
CLEARFIELD     FOG       41  41 100 E3        29.85R VSB 1/4
JOHNSTOWN      SUNNY     53  49  86 S7        29.83R
ALTOONA        FOG       38  38 100 CALM      29.87R VSB<1/4
STATE COLLEGE  FOG       39  39 100 W3        29.88R VSB 1/8
WILLIAMSPORT   FOG       40  40 100 CALM      29.89R VSB 1/2
SELINSGROVE    CLOUDY    41  41 100 CALM      29.91R FOG
FT INDIANTOWN  CLOUDY    41  41 100 SW5       29.91R
CAPITAL CITY   FOG       43  40  89 CALM      29.92R VSB 1
HARRISBURG     FOG       42  42 100 CALM      29.93R VSB 1/8
YORK           CLOUDY    45  45 100 CALM      29.91R FOG
$$

PAZ038>040-043-044-047-048-054-055-060>062-067>071-211600-
EASTERN PENNSYLVANIA

CITY           SKY/WX    TMP DP  RH WIND       PRES   REMARKS
SCRANTON       CLOUDY    41  41 100 VRB3      29.87S FOG
MOUNT POCONO   FOG       42  41  96 NW7       29.85S VSB 1/4
ALLENTOWN      CLOUDY    43  40  89 SW8       29.89F FOG
QUAKERTOWN*    CLOUDY    41  41 100 W3        29.90F
READING        CLOUDY    41  41 100 CALM      29.89S FOG
LANCASTER      CLOUDY    44  44 100 VRB3      29.90R FOG
COATESVILLE    FOG       43  43 100 SW5       29.91S VSB<1/4
POTTSTOWN      CLOUDY    42  42 100 CALM      29.91F FOG
BLUE BELL      CLOUDY    41  41 100 W5        29.90S
DOYLESTOWN     CLOUDY    44  43  96 W5        29.89F
WILLOW GROVE   NOT AVBL
NORTH PHILA    CLOUDY    45  43  93 W6        29.92S FOG
PHILADELPHIA   CLOUDY    44  43  96 SW8       29.92S FOG
$$



USA.gov is the U.S. government's official web portal to all federal, state and local government web resources and services.